PAKSAT-1R

Last updated on Thu Nov 21 2024 00:02:41 GMT+0000 (Coordinated Universal Time)

1 37779U 11042A 24325.23137792 .00000155 00000+0 00000+0 0 9990 2 37779 0.0653 97.1435 0001619 214.4848 229.4791 1.00276798 48721
UTC large
Height (km)
Speed (km/s)
/
Latitude / Longitude
Inclination (degrees)
Orbital Period (minutes)
Azimuth
Elevation
Range (km)
Doppler Factor

Next 0 passes for location: London (51.5072 / 0.1276)

Sorry there are no passes over London.